リニア彗星

C/2002 U2 ( LINEAR )

English version
Home page
Updated on June 5, 2003

---------------------------------------------------------------------

・ プロフィール

発見日 2002年10月25日
発見光度 17.3等
発見者 Lincoln Laboratory Near-Earth Asteroid Research project

・ 軌道要素

Epoch 2003 Jan. 1.0 TT = JDT 2452640.5
T 2002 Dec. 31.98524 TT                                 MPC
q   1.2086205            (2000.0)            P               Q
z  +0.0000047      Peri.   95.84662     -0.39903295     -0.74281853
 +/-0.0000116      Node    38.77582     -0.03316176     -0.57420487
e   0.9999943      Incl.   59.13502     +0.91633673     -0.34425195
>From 267 observations 2002 Oct. 25-2003 Feb. 7, mean residual 0".66.

・ 星図

・ 光度変化

        m1 = 14.5 + 5 logΔ +  5.0 log r  [ ,0]  (              〜2002年12月31日)
        m1 = 13.7 + 5 logΔ + 14.5 log r  [0, ]  (2002年12月31日〜              )

---------------------------------------------------------------------

軌道要素はM.P.E.C. 2003-C41に掲載されたものです。
星図は StellaNavigator Ver.2.0 for Windows (アストロアーツ 編著 / アスキー出版局刊) で作成したものです。
光度グラフはComet for Windowsで作成したものです。

---------------------------------------------------------------------

Copyright(C) Seiichi Yoshida (comet@aerith.net). All rights reserved.